<?xml version="1.0" encoding="UTF-8" standalone="no" ?>
<gpx xmlns="http://www.topografix.com/GPX/1/1" xmlns:xsi="http://www.w3.org/2001/XMLSchema-instance" xsi:schemaLocation="http://www.topografix.com/GPX/1/1 http://www.topografix.com/GPX/1/1/gpx.xsd" version="1.1" creator="VisuGPX - https://www.visugpx.com">
  <metadata>
    <name>Pontoise -Beauvais</name>
    <desc><![CDATA[Pontoise -Beauvais]]></desc>
  </metadata>
  <trk>
    <name><![CDATA[(c) UtagawaVTT.com]]></name>
    <trkseg>
      <trkpt lat="49.4089" lon="2.11092">
        <ele>80</ele>
        <time>2006-03-15T18:44:20Z</time>
      </trkpt>
      <trkpt lat="49.40831" lon="2.11055">
        <ele>82</ele>
      </trkpt>
      <trkpt lat="49.40754" lon="2.11187">
        <ele>84</ele>
      </trkpt>
      <trkpt lat="49.40546" lon="2.11429">
        <ele>77</ele>
        <time>2006-03-15T18:44:20Z</time>
      </trkpt>
      <trkpt lat="49.40438" lon="2.11099">
        <ele>83</ele>
        <time>2006-03-15T18:44:20Z</time>
      </trkpt>
      <trkpt lat="49.40508" lon="2.10975">
        <ele>93</ele>
        <time>2006-03-15T18:44:20Z</time>
      </trkpt>
      <trkpt lat="49.40584" lon="2.10929">
        <ele>96</ele>
        <time>2006-03-15T18:44:20Z</time>
      </trkpt>
      <trkpt lat="49.40595" lon="2.10939">
        <ele>96</ele>
        <time>2006-03-15T18:44:20Z</time>
      </trkpt>
      <trkpt lat="49.40633" lon="2.10833">
        <ele>99</ele>
        <time>2006-03-15T18:44:20Z</time>
      </trkpt>
      <trkpt lat="49.40551" lon="2.10755">
        <ele>101</ele>
        <time>2006-03-15T18:44:20Z</time>
      </trkpt>
      <trkpt lat="49.40486" lon="2.10578">
        <ele>102</ele>
        <time>2006-03-15T18:44:20Z</time>
      </trkpt>
      <trkpt lat="49.40378" lon="2.10375">
        <ele>102</ele>
        <time>2006-03-15T18:44:20Z</time>
      </trkpt>
      <trkpt lat="49.40393" lon="2.10194">
        <ele>105</ele>
      </trkpt>
      <trkpt lat="49.40386" lon="2.09894">
        <ele>110</ele>
        <time>2006-03-15T18:44:20Z</time>
      </trkpt>
      <trkpt lat="49.40388" lon="2.09709">
        <ele>115</ele>
        <time>2006-03-15T18:44:20Z</time>
      </trkpt>
      <trkpt lat="49.4032" lon="2.09475">
        <ele>117</ele>
        <time>2006-03-15T18:44:20Z</time>
      </trkpt>
      <trkpt lat="49.40293" lon="2.09278">
        <ele>120</ele>
        <time>2006-03-15T18:44:20Z</time>
      </trkpt>
      <trkpt lat="49.40293" lon="2.09162">
        <ele>121</ele>
      </trkpt>
      <trkpt lat="49.40275" lon="2.09016">
        <ele>123</ele>
      </trkpt>
      <trkpt lat="49.4029" lon="2.08838">
        <ele>125</ele>
        <time>2006-03-15T18:44:20Z</time>
      </trkpt>
      <trkpt lat="49.40292" lon="2.0857">
        <ele>131</ele>
        <time>2006-03-15T18:44:20Z</time>
      </trkpt>
      <trkpt lat="49.40172" lon="2.08647">
        <ele>124</ele>
      </trkpt>
      <trkpt lat="49.39979" lon="2.0876">
        <ele>98</ele>
      </trkpt>
      <trkpt lat="49.39856" lon="2.08824">
        <ele>83</ele>
      </trkpt>
      <trkpt lat="49.39828" lon="2.08886">
        <ele>79</ele>
        <time>2006-03-15T18:44:20Z</time>
      </trkpt>
      <trkpt lat="49.3967" lon="2.08938">
        <ele>86</ele>
        <time>2006-03-15T18:44:20Z</time>
      </trkpt>
      <trkpt lat="49.39684" lon="2.09003">
        <ele>87</ele>
        <time>2006-03-15T18:44:20Z</time>
      </trkpt>
      <trkpt lat="49.39534" lon="2.09073">
        <ele>101</ele>
      </trkpt>
      <trkpt lat="49.39381" lon="2.09187">
        <ele>120</ele>
        <time>2006-03-15T18:44:20Z</time>
      </trkpt>
      <trkpt lat="49.3931" lon="2.09164">
        <ele>126</ele>
      </trkpt>
      <trkpt lat="49.39223" lon="2.09205">
        <ele>136</ele>
      </trkpt>
      <trkpt lat="49.3907" lon="2.0939">
        <ele>140</ele>
      </trkpt>
      <trkpt lat="49.38933" lon="2.09494">
        <ele>144</ele>
      </trkpt>
      <trkpt lat="49.38792" lon="2.09638">
        <ele>142</ele>
      </trkpt>
      <trkpt lat="49.38487" lon="2.09902">
        <ele>144</ele>
        <time>2006-03-15T18:44:20Z</time>
      </trkpt>
      <trkpt lat="49.38509" lon="2.10024">
        <ele>143</ele>
        <time>2006-03-15T18:44:20Z</time>
      </trkpt>
      <trkpt lat="49.38044" lon="2.10243">
        <ele>139</ele>
        <time>2006-03-15T18:44:20Z</time>
      </trkpt>
      <trkpt lat="49.37932" lon="2.09944">
        <ele>130</ele>
        <time>2006-03-15T18:44:20Z</time>
      </trkpt>
      <trkpt lat="49.37841" lon="2.09943">
        <ele>131</ele>
      </trkpt>
      <trkpt lat="49.37687" lon="2.10002">
        <ele>126</ele>
        <time>2006-03-15T18:44:20Z</time>
      </trkpt>
      <trkpt lat="49.3751" lon="2.09797">
        <ele>115</ele>
        <time>2006-03-15T18:44:20Z</time>
      </trkpt>
      <trkpt lat="49.37541" lon="2.09774">
        <ele>116</ele>
      </trkpt>
      <trkpt lat="49.3762" lon="2.0959">
        <ele>118</ele>
        <time>2006-03-15T18:44:20Z</time>
      </trkpt>
      <trkpt lat="49.37421" lon="2.0923">
        <ele>108</ele>
        <time>2006-03-15T18:44:20Z</time>
      </trkpt>
      <trkpt lat="49.37337" lon="2.0911">
        <ele>107</ele>
      </trkpt>
      <trkpt lat="49.37278" lon="2.09032">
        <ele>104</ele>
      </trkpt>
      <trkpt lat="49.37218" lon="2.08854">
        <ele>100</ele>
      </trkpt>
      <trkpt lat="49.37182" lon="2.08789">
        <ele>97</ele>
        <time>2006-03-15T18:44:20Z</time>
      </trkpt>
      <trkpt lat="49.36931" lon="2.08584">
        <ele>97</ele>
        <time>2006-03-15T18:44:20Z</time>
      </trkpt>
      <trkpt lat="49.36907" lon="2.08438">
        <ele>97</ele>
        <time>2006-03-15T18:44:20Z</time>
      </trkpt>
      <trkpt lat="49.36329" lon="2.08225">
        <ele>105</ele>
        <time>2006-03-15T18:44:20Z</time>
      </trkpt>
      <trkpt lat="49.36029" lon="2.0811">
        <ele>109</ele>
        <time>2006-03-15T18:44:20Z</time>
      </trkpt>
      <trkpt lat="49.35869" lon="2.08004">
        <ele>111</ele>
      </trkpt>
      <trkpt lat="49.35781" lon="2.07955">
        <ele>112</ele>
      </trkpt>
      <trkpt lat="49.35439" lon="2.07828">
        <ele>117</ele>
        <time>2006-03-15T18:44:20Z</time>
      </trkpt>
      <trkpt lat="49.35403" lon="2.07793">
        <ele>117</ele>
      </trkpt>
      <trkpt lat="49.35313" lon="2.07636">
        <ele>117</ele>
        <time>2006-03-15T18:44:20Z</time>
      </trkpt>
      <trkpt lat="49.3515" lon="2.07508">
        <ele>118</ele>
      </trkpt>
      <trkpt lat="49.35109" lon="2.07431">
        <ele>118</ele>
      </trkpt>
      <trkpt lat="49.34894" lon="2.07279">
        <ele>131</ele>
        <time>2006-03-15T18:44:20Z</time>
      </trkpt>
      <trkpt lat="49.34772" lon="2.07178">
        <ele>137</ele>
      </trkpt>
      <trkpt lat="49.34638" lon="2.07009">
        <ele>140</ele>
        <time>2006-03-15T18:44:20Z</time>
      </trkpt>
      <trkpt lat="49.34564" lon="2.06921">
        <ele>141</ele>
      </trkpt>
      <trkpt lat="49.34452" lon="2.06829">
        <ele>142</ele>
      </trkpt>
      <trkpt lat="49.34403" lon="2.06747">
        <ele>142</ele>
      </trkpt>
      <trkpt lat="49.34226" lon="2.06647">
        <ele>138</ele>
        <time>2006-03-15T18:44:20Z</time>
      </trkpt>
      <trkpt lat="49.34055" lon="2.06547">
        <ele>138</ele>
      </trkpt>
      <trkpt lat="49.33904" lon="2.06501">
        <ele>141</ele>
        <time>2006-03-15T18:44:20Z</time>
      </trkpt>
      <trkpt lat="49.33721" lon="2.06395">
        <ele>144</ele>
      </trkpt>
      <trkpt lat="49.33587" lon="2.06323">
        <ele>156</ele>
      </trkpt>
      <trkpt lat="49.33439" lon="2.06311">
        <ele>168</ele>
        <time>2006-03-15T18:44:20Z</time>
      </trkpt>
      <trkpt lat="49.33275" lon="2.06296">
        <ele>181</ele>
      </trkpt>
      <trkpt lat="49.33091" lon="2.06327">
        <ele>205</ele>
      </trkpt>
      <trkpt lat="49.32983" lon="2.06289">
        <ele>219</ele>
        <time>2006-03-15T18:44:20Z</time>
      </trkpt>
      <trkpt lat="49.32788" lon="2.06184">
        <ele>230</ele>
        <time>2006-03-15T18:44:20Z</time>
      </trkpt>
      <trkpt lat="49.32681" lon="2.06091">
        <ele>231</ele>
        <time>2006-03-15T18:44:20Z</time>
      </trkpt>
      <trkpt lat="49.32616" lon="2.05981">
        <ele>231</ele>
        <time>2006-03-15T18:44:20Z</time>
      </trkpt>
      <trkpt lat="49.32537" lon="2.05815">
        <ele>228</ele>
      </trkpt>
      <trkpt lat="49.32342" lon="2.05649">
        <ele>223</ele>
      </trkpt>
      <trkpt lat="49.32098" lon="2.05366">
        <ele>216</ele>
        <time>2006-03-15T18:44:20Z</time>
      </trkpt>
      <trkpt lat="49.31994" lon="2.05303">
        <ele>211</ele>
      </trkpt>
      <trkpt lat="49.31801" lon="2.05218">
        <ele>201</ele>
      </trkpt>
      <trkpt lat="49.31654" lon="2.0517">
        <ele>197</ele>
      </trkpt>
      <trkpt lat="49.31577" lon="2.05156">
        <ele>194</ele>
        <time>2006-03-15T18:44:20Z</time>
      </trkpt>
      <trkpt lat="49.31511" lon="2.05145">
        <ele>190</ele>
      </trkpt>
      <trkpt lat="49.31426" lon="2.05108">
        <ele>187</ele>
      </trkpt>
      <trkpt lat="49.31211" lon="2.05103">
        <ele>167</ele>
        <time>2006-03-15T18:44:20Z</time>
      </trkpt>
      <trkpt lat="49.31152" lon="2.05106">
        <ele>167</ele>
      </trkpt>
      <trkpt lat="49.30955" lon="2.05201">
        <ele>159</ele>
        <time>2006-03-15T18:44:20Z</time>
      </trkpt>
      <trkpt lat="49.3087" lon="2.05274">
        <ele>157</ele>
        <time>2006-03-15T18:44:20Z</time>
      </trkpt>
      <trkpt lat="49.30748" lon="2.05271">
        <ele>158</ele>
        <time>2006-03-15T18:44:20Z</time>
      </trkpt>
      <trkpt lat="49.30564" lon="2.05169">
        <ele>156</ele>
        <time>2006-03-15T18:44:20Z</time>
      </trkpt>
      <trkpt lat="49.30483" lon="2.05097">
        <ele>154</ele>
        <time>2006-03-15T18:44:20Z</time>
      </trkpt>
      <trkpt lat="49.30334" lon="2.05097">
        <ele>151</ele>
        <time>2006-03-15T18:44:20Z</time>
      </trkpt>
      <trkpt lat="49.30332" lon="2.04989">
        <ele>156</ele>
        <time>2006-03-15T18:44:20Z</time>
      </trkpt>
      <trkpt lat="49.30285" lon="2.04838">
        <ele>164</ele>
      </trkpt>
      <trkpt lat="49.30365" lon="2.04592">
        <ele>173</ele>
        <time>2006-03-15T18:44:20Z</time>
      </trkpt>
      <trkpt lat="49.30401" lon="2.04429">
        <ele>178</ele>
        <time>2006-03-15T18:44:20Z</time>
      </trkpt>
      <trkpt lat="49.3051" lon="2.03578">
        <ele>179</ele>
        <time>2006-03-15T18:44:20Z</time>
      </trkpt>
      <trkpt lat="49.30494" lon="2.03363">
        <ele>175</ele>
        <time>2006-03-15T18:44:20Z</time>
      </trkpt>
      <trkpt lat="49.30413" lon="2.03238">
        <ele>171</ele>
        <time>2006-03-15T18:44:20Z</time>
      </trkpt>
      <trkpt lat="49.30359" lon="2.03026">
        <ele>179</ele>
        <time>2006-03-15T18:44:20Z</time>
      </trkpt>
      <trkpt lat="49.30371" lon="2.02848">
        <ele>181</ele>
        <time>2006-03-15T18:44:20Z</time>
      </trkpt>
      <trkpt lat="49.30409" lon="2.02701">
        <ele>181</ele>
      </trkpt>
      <trkpt lat="49.30464" lon="2.02629">
        <ele>181</ele>
        <time>2006-03-15T18:44:20Z</time>
      </trkpt>
      <trkpt lat="49.30376" lon="2.02649">
        <ele>180</ele>
        <time>2006-03-15T18:44:20Z</time>
      </trkpt>
      <trkpt lat="49.30171" lon="2.02708">
        <ele>177</ele>
        <time>2006-03-15T18:44:20Z</time>
      </trkpt>
      <trkpt lat="49.29823" lon="2.02759">
        <ele>172</ele>
        <time>2006-03-15T18:44:20Z</time>
      </trkpt>
      <trkpt lat="49.2971" lon="2.0269">
        <ele>170</ele>
      </trkpt>
      <trkpt lat="49.29556" lon="2.02624">
        <ele>167</ele>
      </trkpt>
      <trkpt lat="49.29416" lon="2.02554">
        <ele>165</ele>
      </trkpt>
      <trkpt lat="49.293" lon="2.02507">
        <ele>163</ele>
        <time>2006-03-15T18:44:20Z</time>
      </trkpt>
      <trkpt lat="49.29168" lon="2.02377">
        <ele>162</ele>
      </trkpt>
      <trkpt lat="49.29015" lon="2.02224">
        <ele>159</ele>
        <time>2006-03-15T18:44:20Z</time>
      </trkpt>
      <trkpt lat="49.28904" lon="2.02191">
        <ele>156</ele>
        <time>2006-03-15T18:44:20Z</time>
      </trkpt>
      <trkpt lat="49.28821" lon="2.02161">
        <ele>155</ele>
      </trkpt>
      <trkpt lat="49.28191" lon="2.02326">
        <ele>143</ele>
        <time>2006-03-15T18:44:20Z</time>
      </trkpt>
      <trkpt lat="49.28141" lon="2.02359">
        <ele>143</ele>
      </trkpt>
      <trkpt lat="49.28056" lon="2.02498">
        <ele>143</ele>
        <time>2006-03-15T18:44:20Z</time>
      </trkpt>
      <trkpt lat="49.27893" lon="2.02557">
        <ele>142</ele>
      </trkpt>
      <trkpt lat="49.27743" lon="2.02668">
        <ele>137</ele>
        <time>2006-03-15T18:44:20Z</time>
      </trkpt>
      <trkpt lat="49.27644" lon="2.02733">
        <ele>134</ele>
      </trkpt>
      <trkpt lat="49.27535" lon="2.02741">
        <ele>130</ele>
      </trkpt>
      <trkpt lat="49.27428" lon="2.02767">
        <ele>124</ele>
      </trkpt>
      <trkpt lat="49.27377" lon="2.02879">
        <ele>120</ele>
        <time>2006-03-15T18:44:20Z</time>
      </trkpt>
      <trkpt lat="49.27315" lon="2.02946">
        <ele>115</ele>
      </trkpt>
      <trkpt lat="49.27271" lon="2.02986">
        <ele>111</ele>
      </trkpt>
      <trkpt lat="49.27236" lon="2.03062">
        <ele>108</ele>
        <time>2006-03-15T18:44:20Z</time>
      </trkpt>
      <trkpt lat="49.2715" lon="2.03128">
        <ele>114</ele>
        <time>2006-03-15T18:44:20Z</time>
      </trkpt>
      <trkpt lat="49.27181" lon="2.03238">
        <ele>115</ele>
        <time>2006-03-15T18:44:20Z</time>
      </trkpt>
      <trkpt lat="49.27116" lon="2.03146">
        <ele>123</ele>
        <time>2006-03-15T18:44:20Z</time>
      </trkpt>
      <trkpt lat="49.27062" lon="2.03068">
        <ele>126</ele>
      </trkpt>
      <trkpt lat="49.27016" lon="2.03022">
        <ele>130</ele>
        <time>2006-03-15T18:44:20Z</time>
      </trkpt>
      <trkpt lat="49.26799" lon="2.03166">
        <ele>135</ele>
      </trkpt>
      <trkpt lat="49.26415" lon="2.03449">
        <ele>125</ele>
        <time>2006-03-15T18:44:20Z</time>
      </trkpt>
      <trkpt lat="49.26355" lon="2.03147">
        <ele>125</ele>
        <time>2006-03-15T18:44:20Z</time>
      </trkpt>
      <trkpt lat="49.26184" lon="2.02866">
        <ele>121</ele>
        <time>2006-03-15T18:44:20Z</time>
      </trkpt>
      <trkpt lat="49.26032" lon="2.02597">
        <ele>118</ele>
      </trkpt>
      <trkpt lat="49.25963" lon="2.02424">
        <ele>115</ele>
        <time>2006-03-15T18:44:20Z</time>
      </trkpt>
      <trkpt lat="49.25901" lon="2.0221">
        <ele>114</ele>
      </trkpt>
      <trkpt lat="49.25853" lon="2.02118">
        <ele>112</ele>
      </trkpt>
      <trkpt lat="49.25783" lon="2.02043">
        <ele>109</ele>
      </trkpt>
      <trkpt lat="49.25741" lon="2.01959">
        <ele>107</ele>
      </trkpt>
      <trkpt lat="49.2565" lon="2.01879">
        <ele>106</ele>
        <time>2006-03-15T18:44:20Z</time>
      </trkpt>
      <trkpt lat="49.25636" lon="2.01856">
        <ele>105</ele>
      </trkpt>
      <trkpt lat="49.25657" lon="2.01825">
        <ele>103</ele>
      </trkpt>
      <trkpt lat="49.25692" lon="2.01669">
        <ele>95</ele>
      </trkpt>
      <trkpt lat="49.25684" lon="2.01609">
        <ele>94</ele>
        <time>2006-03-15T18:44:20Z</time>
      </trkpt>
      <trkpt lat="49.25593" lon="2.01539">
        <ele>93</ele>
        <time>2006-03-15T18:44:20Z</time>
      </trkpt>
      <trkpt lat="49.25544" lon="2.01457">
        <ele>93</ele>
      </trkpt>
      <trkpt lat="49.2552" lon="2.01378">
        <ele>93</ele>
        <time>2006-03-15T18:44:20Z</time>
      </trkpt>
      <trkpt lat="49.25416" lon="2.01286">
        <ele>94</ele>
        <time>2006-03-15T18:44:20Z</time>
      </trkpt>
      <trkpt lat="49.25337" lon="2.01205">
        <ele>94</ele>
      </trkpt>
      <trkpt lat="49.25108" lon="2.00998">
        <ele>96</ele>
        <time>2006-03-15T18:44:20Z</time>
      </trkpt>
      <trkpt lat="49.24976" lon="2.01337">
        <ele>89</ele>
        <time>2006-03-15T18:44:20Z</time>
      </trkpt>
      <trkpt lat="49.25034" lon="2.01378">
        <ele>92</ele>
        <time>2006-03-15T18:44:20Z</time>
      </trkpt>
      <trkpt lat="49.25042" lon="2.01431">
        <ele>95</ele>
        <time>2006-03-15T18:44:20Z</time>
      </trkpt>
      <trkpt lat="49.25012" lon="2.01467">
        <ele>94</ele>
        <time>2006-03-15T18:44:20Z</time>
      </trkpt>
      <trkpt lat="49.24972" lon="2.01488">
        <ele>92</ele>
        <time>2006-03-15T18:44:20Z</time>
      </trkpt>
      <trkpt lat="49.24945" lon="2.01526">
        <ele>93</ele>
        <time>2006-03-15T18:44:20Z</time>
      </trkpt>
      <trkpt lat="49.24904" lon="2.01535">
        <ele>90</ele>
      </trkpt>
      <trkpt lat="49.24841" lon="2.01503">
        <ele>90</ele>
        <time>2006-03-15T18:44:20Z</time>
      </trkpt>
      <trkpt lat="49.24797" lon="2.01469">
        <ele>92</ele>
      </trkpt>
      <trkpt lat="49.24737" lon="2.01497">
        <ele>97</ele>
      </trkpt>
      <trkpt lat="49.24448" lon="2.01802">
        <ele>100</ele>
      </trkpt>
      <trkpt lat="49.24363" lon="2.01928">
        <ele>101</ele>
        <time>2006-03-15T18:44:20Z</time>
      </trkpt>
      <trkpt lat="49.2414" lon="2.02085">
        <ele>98</ele>
        <time>2006-03-15T18:44:20Z</time>
      </trkpt>
      <trkpt lat="49.24065" lon="2.02232">
        <ele>98</ele>
      </trkpt>
      <trkpt lat="49.2397" lon="2.02337">
        <ele>97</ele>
        <time>2006-03-15T18:44:20Z</time>
      </trkpt>
      <trkpt lat="49.2384" lon="2.0235">
        <ele>95</ele>
      </trkpt>
      <trkpt lat="49.23757" lon="2.02401">
        <ele>96</ele>
        <time>2006-03-15T18:44:20Z</time>
      </trkpt>
      <trkpt lat="49.23638" lon="2.02522">
        <ele>98</ele>
      </trkpt>
      <trkpt lat="49.23506" lon="2.02633">
        <ele>97</ele>
      </trkpt>
      <trkpt lat="49.23438" lon="2.02738">
        <ele>95</ele>
      </trkpt>
      <trkpt lat="49.23299" lon="2.02818">
        <ele>92</ele>
      </trkpt>
      <trkpt lat="49.23132" lon="2.02933">
        <ele>90</ele>
        <time>2006-03-15T18:44:20Z</time>
      </trkpt>
      <trkpt lat="49.23058" lon="2.02906">
        <ele>88</ele>
      </trkpt>
      <trkpt lat="49.2305" lon="2.02937">
        <ele>88</ele>
      </trkpt>
      <trkpt lat="49.22935" lon="2.02999">
        <ele>86</ele>
        <time>2006-03-15T18:44:20Z</time>
      </trkpt>
      <trkpt lat="49.2288" lon="2.03038">
        <ele>86</ele>
      </trkpt>
      <trkpt lat="49.22833" lon="2.03017">
        <ele>84</ele>
        <time>2006-03-15T18:44:20Z</time>
      </trkpt>
      <trkpt lat="49.2277" lon="2.02963">
        <ele>82</ele>
      </trkpt>
      <trkpt lat="49.22739" lon="2.029">
        <ele>81</ele>
      </trkpt>
      <trkpt lat="49.22675" lon="2.02857">
        <ele>80</ele>
      </trkpt>
      <trkpt lat="49.22619" lon="2.02829">
        <ele>80</ele>
      </trkpt>
      <trkpt lat="49.2263" lon="2.02751">
        <ele>80</ele>
      </trkpt>
      <trkpt lat="49.22573" lon="2.02743">
        <ele>81</ele>
        <time>2006-03-15T18:44:20Z</time>
      </trkpt>
      <trkpt lat="49.22512" lon="2.02682">
        <ele>82</ele>
      </trkpt>
      <trkpt lat="49.22466" lon="2.02699">
        <ele>83</ele>
      </trkpt>
      <trkpt lat="49.22368" lon="2.02806">
        <ele>83</ele>
      </trkpt>
      <trkpt lat="49.22168" lon="2.02953">
        <ele>80</ele>
        <time>2006-03-15T18:44:20Z</time>
      </trkpt>
      <trkpt lat="49.22146" lon="2.02936">
        <ele>79</ele>
      </trkpt>
      <trkpt lat="49.22023" lon="2.02939">
        <ele>81</ele>
        <time>2006-03-15T18:44:20Z</time>
      </trkpt>
      <trkpt lat="49.21817" lon="2.02927">
        <ele>89</ele>
        <time>2006-03-15T18:44:20Z</time>
      </trkpt>
      <trkpt lat="49.21673" lon="2.02883">
        <ele>96</ele>
        <time>2006-03-15T18:44:20Z</time>
      </trkpt>
      <trkpt lat="49.21632" lon="2.02863">
        <ele>97</ele>
        <time>2006-03-15T18:44:20Z</time>
      </trkpt>
      <trkpt lat="49.21553" lon="2.02809">
        <ele>97</ele>
        <time>2006-03-15T18:44:20Z</time>
      </trkpt>
      <trkpt lat="49.21472" lon="2.02815">
        <ele>97</ele>
      </trkpt>
      <trkpt lat="49.21385" lon="2.02747">
        <ele>96</ele>
        <time>2006-03-15T18:44:20Z</time>
      </trkpt>
      <trkpt lat="49.21299" lon="2.02714">
        <ele>98</ele>
        <time>2006-03-15T18:44:20Z</time>
      </trkpt>
      <trkpt lat="49.21214" lon="2.02711">
        <ele>101</ele>
        <time>2006-03-15T18:44:20Z</time>
      </trkpt>
      <trkpt lat="49.21144" lon="2.02719">
        <ele>101</ele>
        <time>2006-03-15T18:44:20Z</time>
      </trkpt>
      <trkpt lat="49.2107" lon="2.02723">
        <ele>100</ele>
      </trkpt>
      <trkpt lat="49.20912" lon="2.02642">
        <ele>106</ele>
      </trkpt>
      <trkpt lat="49.20798" lon="2.02665">
        <ele>112</ele>
      </trkpt>
      <trkpt lat="49.20602" lon="2.02585">
        <ele>115</ele>
      </trkpt>
      <trkpt lat="49.20485" lon="2.02547">
        <ele>118</ele>
      </trkpt>
      <trkpt lat="49.20416" lon="2.02589">
        <ele>119</ele>
        <time>2006-03-15T18:44:20Z</time>
      </trkpt>
      <trkpt lat="49.20373" lon="2.02791">
        <ele>131</ele>
        <time>2006-03-15T18:44:20Z</time>
      </trkpt>
      <trkpt lat="49.2044" lon="2.02943">
        <ele>139</ele>
        <time>2006-03-15T18:44:20Z</time>
      </trkpt>
      <trkpt lat="49.20419" lon="2.03335">
        <ele>144</ele>
        <time>2006-03-15T18:44:20Z</time>
      </trkpt>
      <trkpt lat="49.20462" lon="2.03525">
        <ele>147</ele>
      </trkpt>
      <trkpt lat="49.20564" lon="2.0373">
        <ele>147</ele>
        <time>2006-03-15T18:44:20Z</time>
      </trkpt>
      <trkpt lat="49.20532" lon="2.04135">
        <ele>148</ele>
      </trkpt>
      <trkpt lat="49.2052" lon="2.04355">
        <ele>146</ele>
      </trkpt>
      <trkpt lat="49.2048" lon="2.04563">
        <ele>143</ele>
        <time>2006-03-15T18:44:20Z</time>
      </trkpt>
      <trkpt lat="49.20544" lon="2.04706">
        <ele>130</ele>
      </trkpt>
      <trkpt lat="49.20536" lon="2.04936">
        <ele>115</ele>
      </trkpt>
      <trkpt lat="49.20568" lon="2.05136">
        <ele>98</ele>
        <time>2006-03-15T18:44:20Z</time>
      </trkpt>
      <trkpt lat="49.20539" lon="2.05222">
        <ele>96</ele>
      </trkpt>
      <trkpt lat="49.20455" lon="2.05286">
        <ele>97</ele>
      </trkpt>
      <trkpt lat="49.2038" lon="2.05367">
        <ele>97</ele>
        <time>2006-03-15T18:44:20Z</time>
      </trkpt>
      <trkpt lat="49.20328" lon="2.05329">
        <ele>97</ele>
        <time>2006-03-15T18:44:20Z</time>
      </trkpt>
      <trkpt lat="49.20241" lon="2.05357">
        <ele>95</ele>
      </trkpt>
      <trkpt lat="49.20218" lon="2.0532">
        <ele>96</ele>
        <time>2006-03-15T18:44:20Z</time>
      </trkpt>
      <trkpt lat="49.20191" lon="2.0533">
        <ele>96</ele>
      </trkpt>
      <trkpt lat="49.2015" lon="2.05394">
        <ele>96</ele>
      </trkpt>
      <trkpt lat="49.20117" lon="2.05461">
        <ele>96</ele>
      </trkpt>
      <trkpt lat="49.19805" lon="2.05623">
        <ele>100</ele>
        <time>2006-03-15T18:44:20Z</time>
      </trkpt>
      <trkpt lat="49.19806" lon="2.05714">
        <ele>101</ele>
      </trkpt>
      <trkpt lat="49.19723" lon="2.06167">
        <ele>90</ele>
      </trkpt>
      <trkpt lat="49.19669" lon="2.06258">
        <ele>88</ele>
        <time>2006-03-15T18:44:20Z</time>
      </trkpt>
      <trkpt lat="49.19663" lon="2.06291">
        <ele>88</ele>
      </trkpt>
      <trkpt lat="49.19618" lon="2.06356">
        <ele>88</ele>
      </trkpt>
      <trkpt lat="49.1959" lon="2.06447">
        <ele>90</ele>
      </trkpt>
      <trkpt lat="49.19473" lon="2.06582">
        <ele>87</ele>
      </trkpt>
      <trkpt lat="49.19385" lon="2.06717">
        <ele>79</ele>
      </trkpt>
      <trkpt lat="49.19342" lon="2.06721">
        <ele>78</ele>
        <time>2006-03-15T18:44:20Z</time>
      </trkpt>
      <trkpt lat="49.19338" lon="2.07036">
        <ele>74</ele>
        <time>2006-03-15T18:44:20Z</time>
      </trkpt>
      <trkpt lat="49.19211" lon="2.0707">
        <ele>82</ele>
      </trkpt>
      <trkpt lat="49.19142" lon="2.0707">
        <ele>86</ele>
      </trkpt>
      <trkpt lat="49.1902" lon="2.07125">
        <ele>104</ele>
        <time>2006-03-15T18:44:20Z</time>
      </trkpt>
      <trkpt lat="49.19002" lon="2.0724">
        <ele>97</ele>
        <time>2006-03-15T18:44:20Z</time>
      </trkpt>
      <trkpt lat="49.19013" lon="2.0736">
        <ele>94</ele>
      </trkpt>
      <trkpt lat="49.1898" lon="2.07482">
        <ele>101</ele>
        <time>2006-03-15T18:44:20Z</time>
      </trkpt>
      <trkpt lat="49.1894" lon="2.07528">
        <ele>106</ele>
      </trkpt>
      <trkpt lat="49.18906" lon="2.0753">
        <ele>111</ele>
      </trkpt>
      <trkpt lat="49.18751" lon="2.07559">
        <ele>118</ele>
      </trkpt>
      <trkpt lat="49.18667" lon="2.07604">
        <ele>119</ele>
        <time>2006-03-15T18:44:20Z</time>
      </trkpt>
      <trkpt lat="49.18639" lon="2.07619">
        <ele>119</ele>
      </trkpt>
      <trkpt lat="49.18571" lon="2.07626">
        <ele>117</ele>
        <time>2006-03-15T18:44:20Z</time>
      </trkpt>
      <trkpt lat="49.18512" lon="2.07647">
        <ele>114</ele>
      </trkpt>
      <trkpt lat="49.18507" lon="2.07829">
        <ele>105</ele>
      </trkpt>
      <trkpt lat="49.18444" lon="2.08052">
        <ele>108</ele>
      </trkpt>
      <trkpt lat="49.18404" lon="2.0822">
        <ele>116</ele>
      </trkpt>
      <trkpt lat="49.18303" lon="2.08437">
        <ele>122</ele>
        <time>2006-03-15T18:44:20Z</time>
      </trkpt>
      <trkpt lat="49.18222" lon="2.08584">
        <ele>122</ele>
      </trkpt>
      <trkpt lat="49.18025" lon="2.08864">
        <ele>117</ele>
      </trkpt>
      <trkpt lat="49.17734" lon="2.0927">
        <ele>107</ele>
        <time>2006-03-15T18:44:20Z</time>
      </trkpt>
      <trkpt lat="49.17729" lon="2.09438">
        <ele>105</ele>
        <time>2006-03-15T18:44:20Z</time>
      </trkpt>
      <trkpt lat="49.17726" lon="2.09542">
        <ele>104</ele>
        <time>2006-03-15T18:44:20Z</time>
      </trkpt>
      <trkpt lat="49.17651" lon="2.09413">
        <ele>105</ele>
        <time>2006-03-15T18:44:20Z</time>
      </trkpt>
      <trkpt lat="49.17574" lon="2.09514">
        <ele>103</ele>
        <time>2006-03-15T18:44:20Z</time>
      </trkpt>
      <trkpt lat="49.17526" lon="2.09579">
        <ele>104</ele>
        <time>2006-03-15T18:44:20Z</time>
      </trkpt>
      <trkpt lat="49.17477" lon="2.09675">
        <ele>103</ele>
        <time>2006-03-15T18:44:20Z</time>
      </trkpt>
      <trkpt lat="49.17425" lon="2.09743">
        <ele>101</ele>
        <time>2006-03-15T18:44:20Z</time>
      </trkpt>
      <trkpt lat="49.1738" lon="2.09777">
        <ele>99</ele>
        <time>2006-03-15T18:44:20Z</time>
      </trkpt>
      <trkpt lat="49.1737" lon="2.09868">
        <ele>97</ele>
      </trkpt>
      <trkpt lat="49.17287" lon="2.1009">
        <ele>103</ele>
        <time>2006-03-15T18:44:20Z</time>
      </trkpt>
      <trkpt lat="49.17143" lon="2.10286">
        <ele>101</ele>
        <time>2006-03-15T18:44:20Z</time>
      </trkpt>
      <trkpt lat="49.17015" lon="2.105">
        <ele>93</ele>
        <time>2006-03-15T18:44:20Z</time>
      </trkpt>
      <trkpt lat="49.16881" lon="2.10712">
        <ele>98</ele>
        <time>2006-03-15T18:44:20Z</time>
      </trkpt>
      <trkpt lat="49.16791" lon="2.1075">
        <ele>99</ele>
        <time>2006-03-15T18:44:20Z</time>
      </trkpt>
      <trkpt lat="49.16731" lon="2.10758">
        <ele>99</ele>
      </trkpt>
      <trkpt lat="49.16482" lon="2.10857">
        <ele>101</ele>
      </trkpt>
      <trkpt lat="49.16194" lon="2.10921">
        <ele>95</ele>
        <time>2006-03-15T18:44:20Z</time>
      </trkpt>
      <trkpt lat="49.15939" lon="2.10926">
        <ele>79</ele>
        <time>2006-03-15T18:44:20Z</time>
      </trkpt>
      <trkpt lat="49.159" lon="2.10843">
        <ele>79</ele>
        <time>2006-03-15T18:44:20Z</time>
      </trkpt>
      <trkpt lat="49.15892" lon="2.10753">
        <ele>81</ele>
        <time>2006-03-15T18:44:20Z</time>
      </trkpt>
      <trkpt lat="49.1576" lon="2.10655">
        <ele>61</ele>
        <time>2006-03-15T18:44:20Z</time>
      </trkpt>
      <trkpt lat="49.15648" lon="2.10578">
        <ele>63</ele>
        <time>2006-03-15T18:44:20Z</time>
      </trkpt>
      <trkpt lat="49.15597" lon="2.10701">
        <ele>64</ele>
        <time>2006-03-15T18:44:20Z</time>
      </trkpt>
      <trkpt lat="49.15572" lon="2.10782">
        <ele>64</ele>
        <time>2006-03-15T18:44:20Z</time>
      </trkpt>
      <trkpt lat="49.15514" lon="2.10866">
        <ele>65</ele>
        <time>2006-03-15T18:44:20Z</time>
      </trkpt>
      <trkpt lat="49.15437" lon="2.10868">
        <ele>66</ele>
        <time>2006-03-15T18:44:20Z</time>
      </trkpt>
      <trkpt lat="49.15383" lon="2.10822">
        <ele>70</ele>
        <time>2006-03-15T18:44:20Z</time>
      </trkpt>
      <trkpt lat="49.15284" lon="2.10821">
        <ele>68</ele>
      </trkpt>
      <trkpt lat="49.15213" lon="2.1084">
        <ele>67</ele>
        <time>2006-03-15T18:44:20Z</time>
      </trkpt>
      <trkpt lat="49.15193" lon="2.1094">
        <ele>62</ele>
        <time>2006-03-15T18:44:20Z</time>
      </trkpt>
      <trkpt lat="49.15105" lon="2.10978">
        <ele>62</ele>
      </trkpt>
      <trkpt lat="49.15068" lon="2.11019">
        <ele>61</ele>
        <time>2006-03-15T18:44:20Z</time>
      </trkpt>
      <trkpt lat="49.14881" lon="2.1102">
        <ele>59</ele>
        <time>2006-03-15T18:44:20Z</time>
      </trkpt>
      <trkpt lat="49.1477" lon="2.11092">
        <ele>57</ele>
      </trkpt>
      <trkpt lat="49.14696" lon="2.1112">
        <ele>56</ele>
        <time>2006-03-15T18:44:20Z</time>
      </trkpt>
      <trkpt lat="49.14565" lon="2.11237">
        <ele>54</ele>
        <time>2006-03-15T18:44:20Z</time>
      </trkpt>
      <trkpt lat="49.14424" lon="2.11171">
        <ele>55</ele>
        <time>2006-03-15T18:44:20Z</time>
      </trkpt>
      <trkpt lat="49.14378" lon="2.11106">
        <ele>54</ele>
        <time>2006-03-15T18:44:20Z</time>
      </trkpt>
      <trkpt lat="49.14378" lon="2.10983">
        <ele>57</ele>
      </trkpt>
      <trkpt lat="49.14402" lon="2.10881">
        <ele>55</ele>
        <time>2006-03-15T18:44:20Z</time>
      </trkpt>
      <trkpt lat="49.14393" lon="2.10839">
        <ele>58</ele>
      </trkpt>
      <trkpt lat="49.14294" lon="2.10851">
        <ele>50</ele>
      </trkpt>
      <trkpt lat="49.1411" lon="2.10787">
        <ele>55</ele>
        <time>2006-03-15T18:44:20Z</time>
      </trkpt>
      <trkpt lat="49.14067" lon="2.10982">
        <ele>55</ele>
      </trkpt>
      <trkpt lat="49.14003" lon="2.11125">
        <ele>54</ele>
        <time>2006-03-15T18:44:20Z</time>
      </trkpt>
      <trkpt lat="49.13788" lon="2.10934">
        <ele>65</ele>
      </trkpt>
      <trkpt lat="49.13294" lon="2.10612">
        <ele>82</ele>
        <time>2006-03-15T18:44:20Z</time>
      </trkpt>
      <trkpt lat="49.13165" lon="2.10651">
        <ele>88</ele>
      </trkpt>
      <trkpt lat="49.13114" lon="2.10767">
        <ele>91</ele>
        <time>2006-03-15T18:44:20Z</time>
      </trkpt>
      <trkpt lat="49.1295" lon="2.10688">
        <ele>93</ele>
      </trkpt>
      <trkpt lat="49.12843" lon="2.10577">
        <ele>97</ele>
      </trkpt>
      <trkpt lat="49.12658" lon="2.10511">
        <ele>101</ele>
        <time>2006-03-15T18:44:20Z</time>
      </trkpt>
      <trkpt lat="49.12544" lon="2.10436">
        <ele>107</ele>
      </trkpt>
      <trkpt lat="49.12437" lon="2.10349">
        <ele>111</ele>
      </trkpt>
      <trkpt lat="49.12286" lon="2.10348">
        <ele>113</ele>
      </trkpt>
      <trkpt lat="49.12133" lon="2.10269">
        <ele>114</ele>
        <time>2006-03-15T18:44:20Z</time>
      </trkpt>
      <trkpt lat="49.1187" lon="2.10138">
        <ele>122</ele>
      </trkpt>
      <trkpt lat="49.11471" lon="2.10068">
        <ele>112</ele>
      </trkpt>
      <trkpt lat="49.11319" lon="2.1004">
        <ele>109</ele>
      </trkpt>
      <trkpt lat="49.11189" lon="2.09984">
        <ele>106</ele>
      </trkpt>
      <trkpt lat="49.11002" lon="2.09928">
        <ele>104</ele>
      </trkpt>
      <trkpt lat="49.10875" lon="2.09889">
        <ele>102</ele>
      </trkpt>
      <trkpt lat="49.10589" lon="2.09797">
        <ele>104</ele>
      </trkpt>
      <trkpt lat="49.1043" lon="2.09725">
        <ele>104</ele>
      </trkpt>
      <trkpt lat="49.10281" lon="2.0968">
        <ele>102</ele>
      </trkpt>
      <trkpt lat="49.10066" lon="2.09597">
        <ele>102</ele>
      </trkpt>
      <trkpt lat="49.09923" lon="2.09617">
        <ele>102</ele>
        <time>2006-03-15T18:44:20Z</time>
      </trkpt>
      <trkpt lat="49.09599" lon="2.09526">
        <ele>103</ele>
      </trkpt>
      <trkpt lat="49.09514" lon="2.09502">
        <ele>104</ele>
        <time>2006-03-15T18:44:20Z</time>
      </trkpt>
      <trkpt lat="49.09487" lon="2.0954">
        <ele>105</ele>
      </trkpt>
      <trkpt lat="49.09461" lon="2.09538">
        <ele>106</ele>
      </trkpt>
      <trkpt lat="49.09413" lon="2.09549">
        <ele>106</ele>
      </trkpt>
      <trkpt lat="49.09276" lon="2.09671">
        <ele>106</ele>
      </trkpt>
      <trkpt lat="49.09049" lon="2.09769">
        <ele>102</ele>
      </trkpt>
      <trkpt lat="49.08919" lon="2.09816">
        <ele>101</ele>
      </trkpt>
      <trkpt lat="49.08803" lon="2.09846">
        <ele>98</ele>
      </trkpt>
      <trkpt lat="49.08725" lon="2.09957">
        <ele>94</ele>
        <time>2006-03-15T18:44:20Z</time>
      </trkpt>
      <trkpt lat="49.08763" lon="2.10123">
        <ele>93</ele>
        <time>2006-03-15T18:44:20Z</time>
      </trkpt>
      <trkpt lat="49.08641" lon="2.10182">
        <ele>88</ele>
      </trkpt>
      <trkpt lat="49.08544" lon="2.1027">
        <ele>84</ele>
        <time>2006-03-15T18:44:20Z</time>
      </trkpt>
      <trkpt lat="49.08136" lon="2.10675">
        <ele>96</ele>
      </trkpt>
      <trkpt lat="49.07948" lon="2.10824">
        <ele>99</ele>
        <time>2006-03-15T18:44:20Z</time>
      </trkpt>
      <trkpt lat="49.07793" lon="2.11139">
        <ele>98</ele>
        <time>2006-03-15T18:44:20Z</time>
      </trkpt>
      <trkpt lat="49.07703" lon="2.11255">
        <ele>97</ele>
        <time>2006-03-15T18:44:20Z</time>
      </trkpt>
      <trkpt lat="49.07716" lon="2.11313">
        <ele>96</ele>
        <time>2006-03-15T18:44:20Z</time>
      </trkpt>
      <trkpt lat="49.07578" lon="2.11325">
        <ele>97</ele>
        <time>2006-03-15T18:44:20Z</time>
      </trkpt>
      <trkpt lat="49.07437" lon="2.11172">
        <ele>95</ele>
        <time>2006-03-15T18:44:20Z</time>
      </trkpt>
      <trkpt lat="49.07259" lon="2.10987">
        <ele>89</ele>
        <time>2006-03-15T18:44:20Z</time>
      </trkpt>
      <trkpt lat="49.07167" lon="2.10884">
        <ele>84</ele>
        <time>2006-03-15T18:44:20Z</time>
      </trkpt>
      <trkpt lat="49.06929" lon="2.10819">
        <ele>75</ele>
        <time>2006-03-15T18:44:20Z</time>
      </trkpt>
      <trkpt lat="49.06699" lon="2.10918">
        <ele>62</ele>
        <time>2006-03-15T18:44:20Z</time>
      </trkpt>
      <trkpt lat="49.06649" lon="2.10854">
        <ele>60</ele>
        <time>2006-03-15T18:44:20Z</time>
      </trkpt>
      <trkpt lat="49.06631" lon="2.10861">
        <ele>62</ele>
      </trkpt>
      <trkpt lat="49.06604" lon="2.1083">
        <ele>61</ele>
      </trkpt>
      <trkpt lat="49.06518" lon="2.10815">
        <ele>66</ele>
      </trkpt>
      <trkpt lat="49.0637" lon="2.10761">
        <ele>63</ele>
      </trkpt>
      <trkpt lat="49.06254" lon="2.10664">
        <ele>59</ele>
        <time>2006-03-15T18:44:20Z</time>
      </trkpt>
      <trkpt lat="49.06181" lon="2.10653">
        <ele>61</ele>
        <time>2006-03-15T18:44:20Z</time>
      </trkpt>
      <trkpt lat="49.06088" lon="2.10804">
        <ele>61</ele>
      </trkpt>
      <trkpt lat="49.05989" lon="2.10843">
        <ele>52</ele>
        <time>2006-03-15T18:44:20Z</time>
      </trkpt>
      <trkpt lat="49.05989" lon="2.1089">
        <ele>61</ele>
        <time>2006-03-15T18:44:20Z</time>
      </trkpt>
      <trkpt lat="49.0586" lon="2.10876">
        <ele>66</ele>
      </trkpt>
      <trkpt lat="49.05803" lon="2.10892">
        <ele>66</ele>
      </trkpt>
      <trkpt lat="49.05689" lon="2.10843">
        <ele>65</ele>
      </trkpt>
      <trkpt lat="49.05606" lon="2.10828">
        <ele>61</ele>
      </trkpt>
      <trkpt lat="49.05523" lon="2.10803">
        <ele>52</ele>
      </trkpt>
      <trkpt lat="49.05396" lon="2.10699">
        <ele>34</ele>
      </trkpt>
      <trkpt lat="49.05373" lon="2.10633">
        <ele>31</ele>
        <time>2006-03-15T18:44:20Z</time>
      </trkpt>
      <trkpt lat="49.05318" lon="2.1053">
        <ele>26</ele>
      </trkpt>
      <trkpt lat="49.05098" lon="2.10541">
        <ele>24</ele>
        <time>2006-03-15T18:44:20Z</time>
      </trkpt>
      <trkpt lat="49.04857" lon="2.10139">
        <ele>26</ele>
        <time>2006-03-15T18:44:20Z</time>
      </trkpt>
      <trkpt lat="49.04816" lon="2.10045">
        <ele>30</ele>
      </trkpt>
      <trkpt lat="49.04706" lon="2.09955">
        <ele>28</ele>
        <time>2006-03-15T18:44:20Z</time>
      </trkpt>
      <trkpt lat="49.04687" lon="2.09974">
        <ele>26</ele>
        <time>2006-03-15T18:44:20Z</time>
      </trkpt>
      <trkpt lat="49.04643" lon="2.10005">
        <ele>24</ele>
        <time>2006-03-15T18:44:20Z</time>
      </trkpt>
      <trkpt lat="49.04621" lon="2.10012">
        <ele>24</ele>
        <time>2006-03-15T18:44:20Z</time>
      </trkpt>
    </trkseg>
  </trk>
</gpx>